Weather History for Madison, WI

Change the Weather History Date:

Tuesday, December 31, 2013

  Actual Average Record
Temperature  
Mean Temperature 1 °F 20 °F  
Max Temperature 7 °F 27 °F 55 °F (1965)
Min Temperature -5 °F 12 °F -16 °F (1967)
Degree Days  
Heating Degree Days 64 46  
Month to date heating degree days 1466 1301  
Since 1 July heating degree days 2985 2879  
Cooling Degree Days 0 0  
Month to date cooling degree days 0 0  
Year to date cooling degree days 709 568  
Moisture  
Dew Point -2 °F    
Average Humidity 78    
Maximum Humidity 87    
Minimum Humidity 69    
Precipitation  
Precipitation 0.09 in 0.04 in 0.85 in (1876)
Month to date precipitation 1.62 1.74  
Year to date precipitation 45.38 34.48  
Snow  
Snow 1.40 in 0.40 in 8.10 in (1978)
Month to date snowfall 22.1 13.5  
Since 1 July snowfall 25.6 17.6  
Snow Depth 6.00 in    
Sea Level Pressure  
Sea Level Pressure 30.31 in    
Wind  
Wind Speed 4 mph (NW)    
Max Wind Speed 15 mph    
Max Gust Speed 18 mph    
Visibility 6 miles    
Events Snow    
T = Trace of Precipitation, MM = Missing Value Source: NWS Daily Summary

Daily Weather History Graph

Daily Weather History Graph

Search for Another Location

Airport:

Trip Planner

Search our weather history database for the weather conditions in past years. The results will help you decide how hot, cold, wet, or windy it might be!

Date:

Astronomy

Dec. 31, 2013 Rise Set
Actual Time 7:29 AM CST 4:32 PM CST
Civil Twilight 6:56 AM CST 5:04 PM CST
Nautical Twilight 6:20 AM CST 5:40 PM CST
Astronomical Twilight 5:46 AM CST 6:14 PM CST
Moon 6:20 AM CST (12/31) 4:09 PM CST (12/31)
Length of Visible Light 10h 07m
Length of Day
9h 03m
Waning Crescent, 1% of the Moon is Illuminated
Dec 31
Waning Crescent
Jan 1
New
Jan 7
First Quarter
Jan 15
Full
Jan 23
Last Quarter

Hourly Weather History & Observations

Time (CST) Temp. Windchill Dew Point Humidity Pressure Visibility Wind Dir Wind Speed Gust Speed Precip Events Conditions
12:53 AM -2.0 °F - -7.1 °F 79% 30.24 in 10.0 mi Calm Calm - N/A   Clear
1:53 AM -2.0 °F - -7.1 °F 79% 30.23 in 10.0 mi Calm Calm - N/A   Mostly Cloudy
2:53 AM -0.9 °F -11.0 °F -6.0 °F 79% 30.23 in 10.0 mi WNW 4.6 mph - N/A   Overcast
3:53 AM -0.9 °F - -7.1 °F 75% 30.23 in 10.0 mi Calm Calm - N/A   Overcast
4:53 AM -0.9 °F -12.7 °F -6.0 °F 79% 30.25 in 10.0 mi West 5.8 mph - N/A   Overcast
5:53 AM -0.9 °F - -5.1 °F 83% 30.27 in 10.0 mi Calm Calm - N/A   Overcast
6:53 AM -2.0 °F - -7.1 °F 79% 30.27 in 10.0 mi Calm Calm - N/A   Partly Cloudy
7:53 AM -4.0 °F -12.4 °F -8.0 °F 83% 30.28 in 10.0 mi WNW 3.5 mph - N/A   Partly Cloudy
8:53 AM -0.0 °F - -5.1 °F 79% 30.32 in 10.0 mi Calm Calm - N/A   Mostly Cloudy
9:53 AM 1.9 °F -9.2 °F -4.0 °F 76% 30.35 in 10.0 mi WSW 5.8 mph - N/A   Mostly Cloudy
10:53 AM 3.0 °F -6.4 °F -4.0 °F 73% 30.35 in 10.0 mi Variable 4.6 mph - N/A   Overcast
11:53 AM 5.0 °F -4.1 °F -2.9 °F 70% 30.33 in 10.0 mi WNW 4.6 mph - N/A   Overcast
12:53 PM 5.0 °F -2.1 °F -2.0 °F 73% 30.33 in 10.0 mi West 3.5 mph - N/A   Overcast
1:53 PM 6.1 °F -4.3 °F -2.0 °F 69% 30.31 in 8.0 mi Variable 5.8 mph - 0.00 in Snow Light Snow
2:53 PM 7.0 °F - -0.9 °F 70% 30.32 in 2.5 mi Calm Calm - 0.00 in Snow Light Snow
3:02 PM 7.0 °F - -0.9 °F 70% 30.25 in 1.2 mi Calm Calm - 0.01 in Snow Light Snow
3:10 PM 7.0 °F 0.1 °F -0.0 °F 73% 30.25 in 1.2 mi WSW 3.5 mph - 0.01 in Snow Light Snow
3:24 PM 6.1 °F -0.9 °F -0.0 °F 76% 30.25 in 1.5 mi WSW 3.5 mph - 0.01 in Snow Light Snow
3:53 PM 6.1 °F -0.9 °F 1.0 °F 80% 30.33 in 1.2 mi WNW 3.5 mph - 0.01 in Snow Light Snow
4:14 PM 6.1 °F - 1.0 °F 80% 30.27 in 0.8 mi Calm Calm - 0.01 in Snow Light Snow
4:44 PM 6.1 °F -0.9 °F 1.9 °F 83% 30.27 in 1.0 mi WNW 3.5 mph - 0.03 in Snow Light Snow
4:53 PM 6.1 °F -0.9 °F 1.0 °F 80% 30.34 in 1.2 mi WNW 3.5 mph - 0.03 in Snow Light Snow
5:53 PM 6.1 °F -0.9 °F 1.9 °F 83% 30.35 in 1.5 mi NW 3.5 mph - 0.03 in Snow Light Snow
6:42 PM 6.1 °F -4.3 °F 1.9 °F 83% 30.29 in 1.5 mi NW 5.8 mph - 0.01 in Snow Light Snow
6:53 PM 6.1 °F -2.8 °F 1.0 °F 80% 30.37 in 4.0 mi NW 4.6 mph - 0.01 in Snow Light Snow
7:05 PM 6.1 °F -0.9 °F 1.9 °F 83% 30.30 in 2.5 mi WNW 3.5 mph - 0.00 in Snow Light Snow
7:16 PM 6.1 °F - 1.9 °F 83% 30.31 in 3.0 mi Calm Calm - 0.00 in Snow Light Snow
7:35 PM 7.0 °F 0.1 °F 1.9 °F 80% 30.31 in 2.5 mi WNW 3.5 mph - 0.00 in Snow Light Snow
7:53 PM 7.0 °F 0.1 °F 1.9 °F 80% 30.38 in 3.0 mi North 3.5 mph - 0.01 in Snow Light Snow
8:53 PM 6.1 °F -4.3 °F 1.0 °F 80% 30.39 in 9.0 mi North 5.8 mph - 0.00 in Snow Light Snow
9:53 PM 6.1 °F -6.8 °F -2.9 °F 67% 30.39 in 9.0 mi North 8.1 mph - 0.00 in   Overcast
10:53 PM 6.1 °F -6.8 °F -2.9 °F 67% 30.39 in 10.0 mi NNE 8.1 mph - N/A   Overcast
11:53 PM 3.9 °F -12.2 °F -6.0 °F 64% 30.39 in 10.0 mi NNE 11.5 mph - N/A   Overcast